CSS (TIANHE-1)
1 48274U 21035A   25289.59977712  .00036271  00000-0  40689-3 0  9998
2 48274  41.4667   3.8984 0003299 252.4838 107.5641 15.61917411255105
TUBIN
1 48900U 21059X   25289.21320385  .00109854  00000-0  66295-3 0  9996
2 48900  97.6736 110.2548 0001922 120.4105 239.7351 15.77329939240189
LEDSAT
1 49069U 21073D   25287.95720868  .11134366  25314-5  40586-3 0  9991
2 49069  97.3489  17.4861 0013151 272.2565  87.7231 16.42992651231488
CUTE
1 49263U 21088D   25289.61084780  .00028859  00000-0  44994-3 0  9998
2 49263  97.4400  10.1018 0007032 119.0461 241.1497 15.53793651224411
TeikyoSat 4
1 49396U 21102B   25289.08938372  .00003288  00000-0  21572-3 0  9994
2 49396  97.3989 322.8418 0013876  57.6992 302.5579 15.08252965215911
Z-Sat
1 49399U 21102E   25289.55206175  .00005808  00000-0  30769-3 0  9996
2 49399  97.3676 327.2191 0018105  22.0657 338.1352 15.15637509216507
KOSEN 1
1 49402U 21102H   25289.60579053  .00010218  00000-0  44535-3 0  9992
2 49402  97.3571 331.7106 0014731 353.5800   6.5246 15.22277320216906
HO-113
1 50466U 21131B   25289.64495028  .00000797  00000-0  26185-3 0  9991
2 50466  98.5073  18.3543 0005254 107.5450 252.6313 14.40992648200031
SNUGLITE 2
1 52899U 22065F   25289.65323960  .00001967  00000-0  38778-3 0  9997
2 52899  98.1877  70.5360 0008586  71.8534 288.3602 14.63591409175364
UmKA 1 (RS40S)
1 57172U 23091G   25289.51018342  .00008394  00000-0  42690-3 0  9995
2 57172  97.5435 344.2423 0012555 245.1296 114.8632 15.17031939127011
CubeBel-2 (EU11S)
1 57175U 23091K   25289.62650449  .00012648  00000-0  55485-3 0  9993
2 57175  97.5435 346.3731 0010065 248.4774 111.5390 15.22061442127169
ENSO
1 58470U 23185J   25286.99676613  .00315332  00000-0  14127-2 0  9997
2 58470  97.3538   7.7888 0004942 287.2111  72.8618 15.83344704104804
SONATE-2
1 59112U 24043Q   25289.64984322  .00028786  00000-0  69525-3 0  9996
2 59112  97.5288  63.9648 0009796  15.3958 344.7584 15.41093574 90178
MO-122
1 60209U 24125G   25289.49390008  .00030682  00000-0  72221-3 0  9996
2 60209  97.2617 139.9950 0017604  37.5799 322.6675 15.41740332 71778
GRBBeta
1 60237U 24128C   25289.58757340  .00005350  00000-0  38735-3 0  9992
2 60237  61.9925 349.3649 0056969  84.5158 276.2428 15.03953461 69593
Curium One
1 60242U 24128H   25289.57676898  .00009026  00000-0  58498-3 0  9997
2 60242  61.9821 345.5285 0056735  80.9767 279.7741 15.07419041 69664
ROBUSTA-3A
1 60243U 24128J   25289.49076508  .00008890  00000-0  58595-3 0  9997
2 60243  61.9895 347.1259 0056375  78.4616 282.2799 15.06832865 69631
CatSat
1 60246U 24125J   25289.48084748  .00031419  00000-0  88994-3 0  9990
2 60246  97.2432 137.6650 0037746 356.7157   3.3833 15.35485155 69722
HYPERVIEW-1G (RS66S)
1 61772U 24199AP  25289.61413962  .00035998  00000-0  83595-3 0  9993
2 61772  97.3300 158.5589 0014050  87.8331 272.4525 15.42175642 96793
AO-123
1 61781U 24199AY  25289.61956234  .00009706  00000-0  33132-3 0  9997
2 61781  97.3328 155.7398 0017042  98.2928 262.0246 15.30386440 96604
ZIMSAT 2
1 61783U 24199BA  25289.60679170  .00090246  00000-0  13537-2 0  9994
2 61783  97.3232 160.6078 0012788  82.0119 278.2586 15.54518592100080
HADES-R (SO-124)
1 62690U 25009CK  25289.49625232  .00086821  00000-0  19835-2 0  9991
2 62690  97.3979  10.6730 0001646 320.4347  39.6780 15.42529197 41919
HYDRA-T
1 62692U 25009CM  25289.18948996  .00081288  00000-0  18218-2 0  9990
2 62692  97.3974  10.4718 0001813 303.1836  56.9238 15.43127648 41878
JINJUSat 1B
1 63210U 25052A   25289.25492298  .00017568  00000-0  72459-3 0  9990
2 63210  97.4227 181.8735 0002305 195.1708 164.9460 15.24118194 32820
NUSHSAT 1
1 63211U 25052B   25289.61040222  .00019697  00000-0  79567-3 0  9999
2 63211  97.4215 182.2848 0002025 198.0133 162.1033 15.24795962 32887
TEVEL2-4
1 63213U 25052D   25289.58965333  .00019595  00000-0  80327-3 0  9999
2 63213  97.4133 181.9278 0000768 218.2800 141.8383 15.24303111 32871
TEVEL2-5
1 63214U 25052E   25289.59286422  .00020734  00000-0  85088-3 0  9992
2 63214  97.4134 181.9241 0000773 219.4432 140.6749 15.24254776 32878
TEVEL2-6
1 63215U 25052F   25289.59841892  .00018944  00000-0  77888-3 0  9990
2 63215  97.4134 181.9204 0000783 224.1880 135.9295 15.24210442 32874
TEVEL2-1
1 63217U 25052H   25289.43289771  .00018424  00000-0  76401-3 0  9990
2 63217  97.4110 181.6134 0000822 289.2382  70.8766 15.23927438 32848
TEVEL2-3
1 63218U 25052J   25289.23575229  .00017850  00000-0  74024-3 0  9996
2 63218  97.4111 181.4216 0000897 293.7601  66.3543 15.23932830 32817
TEVEL2-2
1 63219U 25052K   25289.43366470  .00018399  00000-0  76303-3 0  9996
2 63219  97.4112 181.6142 0000853 290.4155  69.6990 15.23924994 32846
TEVEL2-9
1 63237U 25052AD  25289.60601440  .00017431  00000-0  75229-3 0  9996
2 63237  97.4172 181.5656 0005234 293.5070  66.5616 15.22574655 32844
TEVEL2-7
1 63238U 25052AE  25289.61505487  .00016894  00000-0  73159-3 0  9994
2 63238  97.4175 181.5588 0005291 293.6161  66.4520 15.22464534 32844
TEVEL2-8
1 63239U 25052AF  25289.55393845  .00016846  00000-0  73018-3 0  9992
2 63239  97.4175 181.4856 0005306 294.5133  65.5550 15.22433117 32833
HYDRA-W
1 63490U 25052BL  25289.52830183  .00052209  00000-0  16560-2 0  9990
2 63490  97.4111 182.8850 0005891 284.2502  75.8086 15.32498782 32935
HADES-ICM (SO-125)
1 63492U 25052BN  25289.59907967  .00049428  00000-0  16217-2 0  9992
2 63492  97.4119 182.8083 0006573 290.2150  69.8384 15.31422045 32939
